This demonstration page uses our WeatherBlox Daily Observations layout. Learn more.

Left ArrowRight Arrow

44.89941, -97.11507

Hourly Observations for November 9, 2019

Temp ( °F °C ) Dew Point ( °F °C ) Humidity (%) Winds ( mph kmh ) Pressure ( in mb ) Visibility ( mi km ) Precip ( " mm )
12:53 am 00:53 Clear 38 3.3 30 -1.1 73 73 W 9 15 29.90 1012 10 16 0.00 0.00
1:53 am 01:53 Clear 37 2.8 30 -1.1 76 76 WNW 8 13 29.89 1012 10 16 0.00 0.00
2:53 am 02:53 Clear 34 1.1 29 -1.7 82 82 NW 9 15 29.91 1013 10 16 0.00 0.00
3:53 am 03:53 Clear 34 1.1 29 -1.7 82 82 NW 10 17 29.91 1013 10 16 0.00 0.00
4:53 am 04:53 Clear 33 0.6 28 -2.2 82 82 WNW 10 17 29.93 1014 10 16 0.00 0.00
5:53 am 05:53 Clear 32 0 27 -2.8 82 82 WNW 8 13 29.94 1014 10 16 0.00 0.00
6:53 am 06:53 Clear 31 -0.6 27 -2.8 85 85 WNW 7 11 29.95 1014 10 16 0.00 0.00
7:53 am 07:53 Sunny 32 0 28 -2.2 85 85 WNW 6 9 29.96 1015 10 16 0.00 0.00
8:53 am 08:53 Mostly Sunny 33 0.6 29 -1.7 85 85 WNW 6 9 29.95 1014 10 16 0.00 0.00
9:53 am 09:53 Cloudy 34 1.1 29 -1.7 82 82 NNW 6 9 29.94 1014 10 16 0.00 0.00
10:53 am 10:53 Mostly Sunny 36 2.2 30 -1.1 79 79 W 7 11 29.96 1014 10 16 0.00 0.00
11:53 am 11:53 Sunny 38 3.3 30 -1.1 73 73 W 6 9 29.93 1014 10 16 0.00 0.00
12:53 pm 12:53 Sunny 39 3.9 31 -0.6 73 73 W 6 9 29.91 1013 10 16 0.00 0.00
1:53 pm 13:53 Sunny 40 4.4 32 0 73 73 NW 5 7 29.89 1012 10 16 0.00 0.00
2:53 pm 14:53 Sunny 40 4.4 32 0 73 73 Calm 29.88 1012 10 16 0.00 0.00
3:53 pm 15:53 Sunny 40 4.4 32 0 73 73 N 6 9 29.91 1013 10 16 0.00 0.00
4:53 pm 16:53 Partly Cloudy 38 3.3 31 -0.6 76 76 N 6 9 29.92 1013 10 16 0.00 0.00
5:53 pm 17:53 Mostly Cloudy 36 2.2 30 -1.1 79 79 N 3 6 29.95 1014 10 16 0.00 0.00
6:53 pm 18:53 Clear 33 0.6 29 -1.7 85 85 NNE 5 7 29.97 1015 10 16 0.00 0.00
7:53 pm 19:53 Mostly Cloudy 32 0 28 -2.2 85 85 ENE 3 6 30.00 1016 10 16 0.00 0.00
8:53 pm 20:53 Cloudy 31 -0.6 28 -2.2 89 89 Calm 30.01 1016 10 16 0.00 0.00
9:53 pm 21:53 Cloudy 31 -0.6 28 -2.2 89 89 N 6 9 30.03 1017 10 16 0.00 0.00
10:29 pm 22:29 Cloudy 32 0 29 -1.7 88 88 N 5 7 30.07 1018 10 16 0.00 0.00
10:53 pm 22:53 Cloudy 32 0 29 -1.7 88 88 NNE 8 13 30.04 1017 10 16 0.00 0.00
11:53 pm 23:53 Cloudy 32 0 30 -1.1 92 92 NNE 9 15 30.07 1018 9 14 0.00 0.00

Powered by AerisWeather